Regional Weather Roundup
Issued by NWS State College, PA

Home | Current Version | Previous Version | Text Only | Print | Product List | Glossary Off
Versions: 1 2 3 4 5 6 7 8 9 10 11 12 13 14 15 16 17 18 19 20 21 22 23 24 25 26 27 28 29 30 31 32 33 34 35 36 37 38 39 40 41 42 43 44 45 46 47 48 49 50

000
ASUS41 KCTP 240203
RWRCTP

REGIONAL WEATHER ROUNDUP
NATIONAL WEATHER SERVICE STATE COLLEGE PA
1000 PM EDT WED APR 23 2014

Note: "fair" indicates few or no clouds below 12,000 feet with no
significant weather and/or obstructions to visibility.

* = STATION THAT DOES NOT REPORT PRECIPITATION /E.G. RAIN...SNOW...ETC/
    THUNDER OR FOG.

PAZ002>004-007>009-013>016-020>023-029>032-240300-
WESTERN PENNSYLVANIA

CITY           SKY/WX    TMP DP  RH WIND       PRES   REMARKS
ERIE           CLEAR     39  25  57 W10G16    30.09R
MEADVILLE      CLEAR     36  17  46 NW9       30.06R
FRANKLIN*      CLEAR     36  14  41 NW7       30.08R
NEW CASTLE     FAIR      38  12  34 CALM      30.10R
BEAVER COUNTY  NOT AVBL
BUTLER*        CLEAR     39  16  38 CALM      30.09R
PITTSBURGH INT CLEAR     43  23  45 NW10      30.07R
PITTSBURGH     CLEAR     45  23  42 NW6       30.06R
INDIANA*       CLEAR     39  27  60 CALM      30.05R
LATROBE        CLEAR     41  30  65 NW5       30.06R
WASHINGTON CO* CLEAR     43  25  49 W5        30.10R
$$

PAZ004>006-010>012-017>019-024>028-033>037-041-042-045-046-049>053-240300-
CENTRAL PENNSYLVANIA

CITY           SKY/WX    TMP DP  RH WIND       PRES   REMARKS
BRADFORD       CLEAR     36  24  62 W8        29.98R
DUBOIS         CLEAR     39  24  55 W10       30.00R
CLEARFIELD     CLEAR     40  26  57 SW8       30.00R
JOHNSTOWN      CLEAR     37  25  61 NW13      30.00R
ALTOONA        CLEAR     43  27  53 NW14      30.00R
STATE COLLEGE  CLEAR     43  22  43 W6        29.98R
WILLIAMSPORT   CLEAR     43  26  51 N6        29.95R
SELINSGROVE    CLEAR     44  29  55 VRB5      29.95R
FT INDIANTOWN  CLEAR     46  28  48 W13G20    29.92R
CAPITAL CITY   CLEAR     45  29  53 W10       29.95R
HARRISBURG     CLEAR     47  30  51 NW15      29.94R
YORK           CLEAR     45  29  53 NW9G21    29.95R
$$

PAZ038>040-043-044-047-048-054-055-060>062-067>071-240300-
EASTERN PENNSYLVANIA

CITY           SKY/WX    TMP DP  RH WIND       PRES   REMARKS
SCRANTON       CLOUDY    41  26  55 W8        29.90R
MOUNT POCONO   CLEAR     36  26  67 NW17G30   29.81R
ALLENTOWN      PTCLDY    45  24  43 NW13G24   29.91R
QUAKERTOWN*    CLEAR     43  27  52 NW14G23   29.91R
READING        PTCLDY    45  28  51 NW8       29.91R
LANCASTER      CLEAR     43  29  57 W13       29.93R
COATESVILLE    CLEAR     45  27  49 NW14      29.91R
POTTSTOWN      PTCLDY    46  27  47 NW13G23   29.91R
BLUE BELL      CLEAR     48  28  46 NW8G20    29.89R
DOYLESTOWN     PTCLDY    43  27  53 NW17G29   29.88R
WILLOW GROVE   NOT AVBL
NORTH PHILA    PTCLDY    49  26  41 N21G32    29.89R
PHILADELPHIA   PTCLDY    51  28  41 NW16G32   29.89R
$$



USA.gov is the U.S. government's official web portal to all federal, state and local government web resources and services.